Temperature
18 18 18 18 18 18 18 17 17 17 17 17 17 17 17 17 17 17 16 16 16 16 16 15 15 15 15 15 14 14 14 14 14 13 13 13 13 13
18 17 18 18 18 18 18 17 17 17 17 17 17 17 17 17 17 16 16 16 16 16 16 15 15 15 15 14 14 14 14 13 13 13 13 13 13 12
17 17 17 17 17 17 17 17 17 17 17 17 17 17 17 17 16 16 16 16 16 16 15 15 15 15 14 14 14 14 13 13 13 13 13 12 12 12
17 17 17 17 17 17 17 17 17 17 17 17 17 17 17 16 16 16 16 16 15 15 15 15 15 14 14 14 14 13 13 13 13 13 13 12 12 12
17 17 17 17 17 17 17 17 17 17 17 17 17 17 16 16 16 16 15 15 15 15 15 15 14 14 14 14 13 13 13 13 13 13 12 12 12 12
17 17 17 17 17 17 17 17 17 16 16 16 16 16 16 16 16 16 15 15 15 14 14 14 14 14 13 13 13 13 13 13 13 12 12 12 12 12
17 17 17 17 17 17 17 17 16 16 16 16 16 16 16 16 15 15 15 15 14 14 14 14 14 14 13 13 13 13 13 13 12 12 12 12 11 11
17 17 17 17 17 17 17 17 17 16 16 16 16 15 16 15 15 15 15 14 14 14 14 14 14 14 13 13 13 13 13 12 12 12 12 11 11 11
17 17 17 17 17 16 17 16 16 16 16 16 16 15 15 15 15 15 15 14 14 14 14 13 13 13 13 13 13 13 13 12 12 12 12 11 11 11
17 17 17 16 16 16 16 16 16 16 16 16 15 15 15 15 15 15 14 14 14 14 13 13 13 13 13 13 12 12 12 12 12 12 12 11 11 11
17 16 16 16 16 16 16 15 15 16 15 15 15 15 15 15 14 14 14 14 13 13 13 13 13 12 12 12 12 12 12 12 12 12 11 11 11 11
16 16 16 16 16 16 15 15 15 15 15 15 15 15 15 15 14 14 14 14 13 13 13 13 13 12 12 12 12 12 12 12 11 11 11 11 11 10
16 16 16 16 16 15 15 15 15 15 14 14 14 14 14 14 14 14 14 13 13 13 13 13 12 12 12 12 12 11 11 11 11 11 11 11 10 10
16 15 15 15 15 15 15 15 15 14 14 14 14 14 14 14 14 14 14 13 13 13 13 13 12 12 12 11 11 11 11 11 11 11 10 10 10 10
15 15 15 15 15 15 15 15 14 14 14 13 13 13 13 13 13 13 13 13 13 13 12 12 12 12 12 11 11 11 11 11 10 10 10 10 10 10
15 15 15 15 14 14 14 14 14 14 13 13 13 13 13 13 13 13 13 12 12 12 12 12 12 11 11 11 11 11 11 10 10 10 10 10 9 9
15 14 14 14 14 14 14 14 13 13 13 13 13 12 12 12 12 12 12 12 12 12 12 12 11 11 11 11 10 10 10 10 10 10 10 9 9 9
14 14 13 13 13 13 13 13 13 13 13 13 12 12 12 12 12 12 12 12 11 11 11 11 11 10 10 10 10 10 10 10 10 10 9 9 9 9
14 14 13 13 13 13 13 13 12 13 13 12 12 12 12 12 12 11 11 11 11 11 11 11 10 10 10 10 10 10 10 10 10 9 9 9 9 9
14 13 13 13 13 13 13 12 12 12 12 12 12 12 12 12 11 11 11 11 11 11 11 10 10 10 10 10 10 10 10 10 9 9 9 9 9 9
13 13 13 13 13 12 12 12 12 12 12 12 12 12 11 11 11 11 11 11 10 10 10 10 10 10 10 10 9 9 9 9 9 9 9 9 8 8
13 13 13 12 12 12 12 12 12 12 12 12 11 11 11 11 11 11 10 10 10 10 10 10 10 10 9 9 9 9 9 9 9 9 9 9 8 8
13 13 12 12 12 12 12 12 11 11 11 11 11 11 11 11 11 10 10 10 10 10 10 10 10 9 9 9 9 9 9 9 9 9 9 9 9 8
Wind_Speed
3 3 3 3 2 1 1 2 2 3 3 3 1 2 5 6 9 9 8 10 10 10 9 9 8 7 7 6 5 4 4 2 1 1 1 2 2 2
3 3 3 3 2 2 3 2 2 3 3 2 2 3 3 4 8 8 8 11 11 12 12 11 10 9 8 7 6 5 4 3 2 2 2 2 1 2
3 4 3 3 3 2 2 2 3 3 3 2 2 2 3 3 5 6 7 9 9 13 13 12 12 11 10 9 7 6 5 4 3 3 3 3 2 2
4 4 4 4 3 3 3 3 3 3 3 4 2 3 4 4 5 5 6 7 7 12 14 13 12 12 11 10 9 8 7 6 5 4 4 3 3 3
4 4 4 4 4 4 4 4 3 4 3 3 3 3 2 4 4 4 4 3 5 9 13 12 13 13 12 11 11 10 9 8 7 6 6 5 4 4
4 4 4 4 4 4 4 3 3 3 3 4 3 3 3 3 3 3 3 3 3 5 8 9 11 12 13 13 12 11 10 9 9 8 8 7 6 5
4 4 5 4 2 3 4 3 3 3 3 3 3 3 3 2 3 3 4 3 3 4 5 6 7 8 10 12 13 13 13 12 11 10 10 9 8 7
5 5 5 4 3 4 4 4 4 5 4 4 4 4 4 3 3 4 3 3 3 4 5 5 6 6 8 10 13 15 16 14 13 12 11 11 10 9
5 5 6 5 4 3 4 6 6 7 7 5 6 6 4 4 4 4 4 5 4 4 4 5 4 5 7 9 14 16 17 16 15 14 13 12 11 10
5 4 4 3 3 3 4 4 5 5 6 6 6 5 4 3 4 5 5 5 4 3 4 4 4 5 5 7 13 16 18 18 17 16 15 14 13 12
5 4 4 3 3 3 4 5 5 5 5 5 5 5 6 6 5 4 5 5 4 4 3 3 3 3 3 4 9 16 18 18 18 17 16 14 13 11
4 4 4 3 4 4 4 5 6 5 4 4 4 5 6 6 7 6 6 5 4 3 3 3 3 2 2 3 4 9 12 14 16 15 15 15 14 10
5 4 4 4 5 7 6 6 7 5 4 5 5 4 4 4 5 5 5 5 5 4 3 3 3 3 3 2 3 5 7 7 10 11 14 15 15 12
5 4 3 4 6 7 6 7 7 6 4 4 4 4 4 4 5 5 5 6 5 5 3 3 3 3 4 4 3 3 5 6 7 7 8 11 13 15
5 5 5 5 5 4 7 8 6 5 5 5 5 5 4 4 3 3 4 4 4 5 5 4 3 3 3 4 3 3 3 4 5 5 6 6 7 7
5 5 5 5 5 5 4 4 5 5 5 5 4 4 3 3 4 3 3 4 4 4 4 5 4 3 4 4 3 3 3 3 3 4 4 5 6 8
4 4 3 3 3 4 4 4 5 5 5 5 4 4 4 3 3 3 3 3 4 4 3 3 4 4 3 2 3 3 2 2 2 3 3 4 4 6
4 4 4 4 5 5 4 4 4 4 4 4 5 4 4 4 3 3 3 4 4 4 4 3 3 3 2 3 4 4 3 3 3 3 3 4 4 3
4 5 5 5 5 4 4 4 4 3 3 4 4 4 4 3 3 3 4 4 4 4 4 4 4 5 5 5 4 5 5 3 3 3 4 4 3 3
5 5 5 4 4 4 4 4 3 3 3 3 3 3 3 4 4 4 4 5 4 4 4 4 4 4 6 5 4 3 6 5 4 4 3 3 2 2
5 5 4 4 4 4 3 3 3 3 2 2 3 3 3 4 4 5 4 5 5 4 4 4 5 6 4 3 3 3 3 6 6 4 4 3 3 3
5 4 3 3 3 3 3 2 3 3 3 3 3 3 3 3 4 5 5 4 4 5 5 4 3 3 3 4 5 4 3 3 5 7 6 6 4 4
5 4 4 4 4 3 3 3 4 4 3 3 3 3 4 4 4 4 4 5 5 5 4 3 3 3 4 4 5 4 4 4 3 3 4 6 9 7
Wind_Direction
254 246 240 255 248 234 212 204 217 241 245 229 208 187 168 160 168 176 165 172 175 178 182 183 182 181 180 183 185 186 182 183 188 222 221 218 207 202
255 264 255 259 252 227 230 222 217 242 252 228 223 201 190 184 175 175 171 174 185 187 189 189 187 185 186 185 183 182 181 181 175 171 171 161 158 161
263 261 256 262 266 264 253 242 231 236 248 248 224 188 195 200 177 187 183 184 187 192 191 191 191 190 190 189 189 189 187 183 175 168 172 157 139 143
264 266 258 259 256 264 260 257 249 241 239 245 231 205 214 204 190 204 203 199 190 192 191 192 192 193 194 195 196 196 196 196 192 184 176 173 176 179
256 256 258 256 251 252 256 256 255 256 240 237 239 221 221 208 194 212 217 194 207 190 190 193 196 198 200 200 200 200 201 202 201 199 196 193 190 188
263 260 259 254 250 252 251 253 259 260 244 237 233 228 220 205 188 202 214 202 211 198 192 194 198 202 206 207 206 204 204 204 203 203 200 199 197 195
263 263 262 256 248 257 261 259 262 259 255 247 243 236 224 200 211 215 222 215 213 202 184 193 192 201 208 213 213 209 206 206 206 206 204 201 201 201
261 263 260 239 238 242 256 258 250 247 251 250 252 241 231 221 207 217 223 220 230 200 193 211 192 198 201 204 207 207 207 208 209 209 207 205 205 207
257 258 263 258 227 236 246 254 255 251 238 239 249 252 248 224 208 223 228 230 238 208 195 221 207 212 210 210 203 204 204 206 208 208 207 208 209 211
259 256 257 265 262 254 251 252 253 252 244 236 242 253 257 250 219 222 231 237 243 229 202 223 214 217 216 198 198 198 201 204 204 204 204 207 211 214
264 258 247 249 269 278 264 264 263 258 255 248 241 242 245 246 234 219 222 226 242 236 213 222 226 226 213 200 198 200 201 203 203 204 206 208 212 217
259 247 239 242 248 241 251 259 262 260 262 259 247 249 243 239 228 219 221 228 239 244 210 210 217 218 233 216 196 194 200 204 203 206 207 210 210 209
268 262 252 241 248 248 243 248 250 253 254 248 240 238 238 234 226 223 223 226 231 241 217 199 219 222 224 224 206 191 191 196 200 209 213 213 211 208
272 276 280 252 251 249 243 241 246 250 250 245 242 240 236 232 227 223 224 229 229 231 223 208 228 227 224 229 232 197 193 195 193 196 201 210 216 218
275 290 285 262 255 251 244 244 244 245 245 245 244 243 240 230 227 219 215 219 236 239 237 222 223 233 229 231 240 220 200 198 196 192 193 200 206 209
266 270 267 257 260 263 252 241 236 236 233 238 241 246 247 238 232 223 216 213 225 241 231 220 217 230 244 237 225 227 215 204 195 196 194 199 203 206
240 246 252 262 261 256 251 243 236 231 234 240 240 239 240 239 234 229 224 222 229 232 229 214 207 217 234 236 230 229 220 220 206 192 196 216 215 205
220 245 248 250 254 256 257 252 239 230 228 229 234 239 239 235 237 237 231 231 235 232 225 211 191 193 229 261 245 239 231 225 215 206 202 216 234 217
221 244 250 253 256 258 260 263 256 243 232 232 233 235 232 233 239 243 238 238 243 239 231 218 210 205 220 242 247 224 231 226 220 222 222 219 233 222
242 248 254 260 265 268 266 264 261 256 245 243 241 237 236 241 244 245 245 245 245 244 242 231 221 218 225 236 244 244 220 217 217 231 232 223 232 211
244 250 260 266 268 269 268 272 272 262 259 253 245 241 243 243 245 252 256 252 250 251 248 241 233 221 220 220 238 241 224 206 208 219 222 222 231 229
247 251 258 270 276 278 271 267 270 266 257 252 256 253 252 253 254 255 258 258 252 252 254 251 238 225 217 225 234 237 233 224 219 222 221 213 214 221
245 249 243 242 245 251 257 253 257 262 257 249 251 255 256 258 261 259 253 257 259 255 248 245 238 231 226 226 231 232 229 227 225 222 238 234 220 218
Height
1528 1529 1529 1530 1531 1531 1532 1532 1533 1532 1532 1532 1533 1533 1532 1532 1531 1531 1531 1531 1531 1530 1530 1530 1529 1529 1529 1528 1528 1528 1528 1527 1527 1527 1526 1526 1526 1526
1526 1527 1527 1528 1528 1528 1529 1529 1530 1530 1529 1529 1529 1530 1530 1529 1529 1528 1528 1528 1528 1528 1527 1527 1526 1526 1526 1526 1525 1525 1525 1525 1525 1524 1524 1524 1524 1524
1524 1524 1524 1525 1525 1526 1526 1526 1526 1527 1526 1525 1526 1526 1526 1526 1526 1526 1525 1525 1525 1525 1524 1524 1524 1523 1523 1523 1523 1523 1523 1523 1522 1522 1522 1522 1522 1522
1521 1521 1522 1522 1522 1523 1523 1523 1523 1523 1523 1522 1522 1522 1522 1522 1522 1522 1522 1522 1522 1521 1521 1521 1521 1521 1521 1520 1520 1520 1520 1520 1520 1520 1520 1520 1520 1520
1518 1518 1519 1519 1519 1519 1519 1520 1520 1520 1520 1519 1519 1519 1519 1519 1519 1519 1519 1519 1518 1518 1517 1518 1518 1518 1518 1518 1517 1517 1517 1517 1517 1517 1517 1518 1518 1518
1516 1516 1516 1516 1516 1516 1516 1516 1516 1516 1516 1516 1515 1516 1516 1516 1515 1515 1515 1515 1515 1515 1515 1515 1515 1515 1515 1515 1514 1514 1514 1514 1515 1515 1515 1515 1515 1515
1513 1513 1513 1513 1513 1513 1513 1513 1513 1512 1512 1512 1512 1512 1512 1512 1512 1512 1511 1512 1512 1511 1511 1511 1511 1511 1511 1511 1511 1511 1511 1512 1512 1512 1512 1512 1512 1513
1509 1509 1510 1510 1509 1509 1509 1509 1509 1509 1508 1508 1508 1508 1508 1508 1508 1508 1508 1508 1507 1508 1507 1507 1507 1507 1507 1507 1507 1507 1508 1508 1508 1508 1509 1509 1509 1509
1506 1506 1506 1506 1505 1505 1505 1505 1505 1504 1505 1505 1504 1504 1504 1503 1503 1503 1504 1504 1503 1503 1504 1503 1503 1503 1503 1503 1504 1504 1504 1504 1504 1505 1505 1505 1506 1506
1503 1503 1503 1502 1502 1501 1501 1500 1500 1500 1500 1500 1499 1499 1499 1499 1499 1499 1500 1500 1500 1500 1500 1499 1499 1499 1499 1499 1500 1500 1500 1500 1501 1501 1501 1501 1502 1502
1500 1500 1499 1499 1498 1498 1497 1496 1495 1495 1495 1495 1495 1495 1494 1495 1495 1494 1494 1495 1495 1495 1496 1495 1495 1495 1495 1495 1495 1496 1496 1496 1497 1497 1497 1497 1498 1498
1496 1496 1496 1495 1494 1494 1493 1492 1490 1490 1490 1490 1490 1489 1489 1489 1490 1490 1490 1490 1490 1490 1490 1491 1491 1491 1491 1491 1491 1492 1492 1492 1492 1492 1493 1493 1493 1493
1492 1492 1491 1491 1490 1489 1489 1488 1487 1486 1486 1485 1484 1484 1484 1484 1485 1485 1485 1486 1485 1485 1486 1487 1487 1487 1487 1487 1487 1487 1487 1487 1488 1488 1488 1488 1488 1488
1488 1488 1487 1486 1486 1485 1484 1483 1483 1482 1481 1481 1480 1479 1479 1480 1480 1480 1480 1481 1481 1481 1482 1482 1482 1482 1482 1482 1483 1483 1483 1483 1483 1483 1483 1483 1483 1483
1484 1483 1483 1482 1481 1480 1479 1479 1478 1477 1477 1476 1475 1475 1475 1476 1476 1476 1475 1476 1476 1476 1477 1477 1477 1477 1478 1478 1478 1479 1479 1478 1479 1478 1478 1478 1478 1478
1479 1479 1478 1478 1477 1475 1474 1473 1473 1472 1472 1471 1471 1471 1471 1472 1472 1471 1471 1471 1471 1471 1472 1472 1472 1473 1473 1473 1474 1474 1474 1474 1474 1474 1473 1473 1473 1473
1475 1474 1473 1472 1471 1470 1469 1469 1468 1468 1468 1467 1467 1467 1467 1467 1468 1468 1468 1467 1467 1466 1466 1467 1468 1468 1469 1469 1470 1470 1470 1470 1470 1470 1470 1468 1468 1468
1472 1470 1469 1468 1467 1467 1466 1465 1465 1464 1463 1463 1463 1463 1463 1463 1463 1464 1464 1463 1462 1462 1462 1463 1463 1464 1465 1465 1466 1465 1466 1466 1466 1466 1466 1465 1464 1465
1468 1466 1465 1465 1464 1463 1463 1462 1461 1460 1459 1459 1458 1459 1459 1459 1459 1459 1459 1459 1458 1458 1459 1459 1459 1459 1459 1459 1460 1462 1461 1461 1462 1461 1461 1461 1460 1460
1463 1462 1461 1460 1460 1459 1459 1458 1457 1457 1456 1455 1454 1454 1455 1455 1455 1455 1455 1454 1454 1454 1454 1455 1455 1455 1454 1455 1456 1456 1458 1457 1457 1457 1457 1457 1457 1458
1458 1458 1457 1456 1455 1455 1454 1454 1453 1453 1452 1451 1451 1450 1451 1451 1451 1451 1451 1450 1450 1450 1449 1449 1450 1451 1451 1452 1452 1452 1453 1453 1453 1453 1453 1453 1453 1453
1453 1452 1452 1452 1451 1450 1450 1450 1449 1448 1448 1447 1447 1447 1447 1447 1447 1446 1446 1446 1446 1446 1445 1445 1446 1447 1447 1447 1446 1447 1448 1449 1449 1450 1450 1450 1450 1450
1448 1448 1447 1446 1447 1446 1446 1446 1445 1444 1443 1443 1443 1443 1443 1443 1442 1442 1442 1441 1441 1441 1441 1441 1441 1442 1442 1442 1443 1443 1444 1444 1445 1445 1446 1446 1447 1448